CZ-6A DEB, 54334

Orbit data source: Space-Track

CZ-6A DEB, 54334 is space debris in SSO originally from a launch on Fri, 11 Nov 2022 UTC launched from the Taiyaun Space Center, China (TSC). Debris objects in space refer to the collection of defunct objects orbiting the Earth. Examples of debris include non-operational satellites, rocket bodies, and fragments generated from explosions, collisions, or faulty payload assembly.

Loading next visibility...
Identifier
54334, 2022-151CD
Orbit
SSO
Country
Flag of CNCN / PRC
Related business
Manufacturer
SAST
Mission
Spacecraft
Bus & Motor
Unknown
Mass
Unknown
Launch date (UTC)
2022-11-11 (4 years ago)
Launch vehicle
Unknown
Launch site
Taiyaun Space Center, China (TSC)
Object type
Payload
Rocket body
Debris
Shape & HBR
Unknown shape, 0.1 m
Radar Cross Section
Medium (>0.1 m² and <1 m²)

Expand to show TLE details & history
Last TLE update: 17 hours ago

TLE from 17 hours ago
0 CZ-6A DEB
1 54334U 22151CD  26254.27529626  .00515479  00000-0  61285-2 0  9993
2 54334  98.6083   7.6304 0022539 259.2759 100.5956 15.59179523205038
Epoch: 2026-09-11T06:36Z
TLE epoch observation values (Epoch: 2026-09-11T06:36:25.596Z)
Latitude
-0.00003°
Longitude
-81.77723°
Altitude
395.975 km
Speed
7.671 km/s
True Right ascension
00h 30m 31s
True Declination
0° 00' 00"
Sunlit
Object was in full shadow at epoch
Visualization orbit readout
Latitude
Unknown
Longitude
Unknown
Altitude
Unknown
Speed
Unknown
Apparent Right ascension
Unknown
Apparent Declination
Unknown
Sunlit
N/A
Visualization observer readout
Local Sidereal Time
15:53:22
Azimuth
Unknown
Elevation
Unknown
Doppler factor
Unknown
Orbital elements
Apogee altitude
402.249 km
Perigee altitude
371.753 km
Semi-major axis
6,765.138 km
Eccentricity
0.00225
Inclination
98.6083°
RAAN
7.6304°
Arg. of periapsis
259.2759°
True anomaly
100.84934°
Mean anomaly
100.5956°
Eccentric anomaly
100.72248°
Mean motion
3.90057 °/min
Orbital period
92.29 mins
BSTAR
0.0061285
Loading maneuver chart data...
Computing Atmospheric mass density...
Loading historical data...
Loading historical data...
Loading historical data...
Loading historical data...
Loading historical data...
Loading historical data...
Loading historical data...

Documentation

Showing up to 5 results
|